Powrót do katalogu

STARLINK-2462

AktywnyŁącznośćVLEO
NORAD 48121·PAYLOAD·🇺🇸 United States

Wystrzelony Apr 7, 2021 z Cape Canaveral Space Force Station

Loading…

Następne Przeloty (najbliższe 24 godziny)

TLE

ŚwieżeSource: CelesTrak SupGP

Epoka: Sep 14, 2026, 21:41 UTC

1 48121C 21027AF  26257.90395833 -.00026280  00000+0 -84586-3 0  2570
2 48121  53.1595 354.3838 0001352  86.8215   2.3639 15.31685880    10

Śledź STARLINK-2462 w czasie rzeczywistym z AllMySat

Download on the App Store